Regional Weather Roundup
Issued by NWS

Home | Current Version | Previous Version | Graphics & Text | Print | Product List | Glossary On
Versions: 1 2 3 4 5 6 7 8 9 10 11 12 13 14 15 16 17 18 19 20 21 22 23 24 25 26 27 28 29 30 31 32 33 34 35 36 37 38 39 40 41 42 43 44 45 46 47 48 49 50
000
ASUS45 KCYS 200110
RWRWY

WYOMING REGIONAL WEATHER ROUNDUP
NATIONAL WEATHER SERVICE CHEYENNE WY
700 PM MDT TUE AUG 19 2014

NOTE:  "FAIR" INDICATES FEW OR NO CLOUDS BELOW 12,000 FEET
WITH NO SIGNIFICANT WEATHER AND/OR OBSTRUCTIONS TO VISIBILITY.

WYZ001-200200-
YELLOWSTONE NATIONAL PARK

CITY           SKY/WX    TMP DP  RH WIND       PRES   REMARKS
LK YELLOWSTONE   N/A     60  42  51 CALM      30.08F
W YELLOWSTONE  NOT AVBL

$$
WYZ002>013-054>058-071-098>099-200200-
NORTHERN WYOMING

CITY           SKY/WX    TMP DP  RH WIND       PRES   REMARKS
JACKSON        SUNNY     61  46  59 SW16G22   30.01S
CODY           CLOUDY    75  43  31 NW5       29.82F
GREYBULL       CLOUDY    83  40  21 SE8       29.73R
WORLAND        CLOUDY    84  36  18 W7        29.75F
SHERIDAN       CLOUDY    84  40  21 S3        29.73S
BUFFALO        CLOUDY    81  42  25 NW3       29.82S
GILLETTE       MOCLDY    83  36  18 S10       29.77S
HULETT         FAIR      82  54  36 MISG      29.78
NEWCASTLE      FAIR      84  37  18 MISG      29.77

$$
WYZ014>020-022>026-101>103-200200-
CENTRAL WYOMING

CITY           SKY/WX    TMP DP  RH WIND       PRES   REMARKS
BIG PINEY      CLOUDY    62  46  55 CALM      30.04F
PINEDALE       CLOUDY    59  45  58 W7        30.05S
DUBOIS         CLOUDY    52  45  76 NW14      30.07S
LANDER         PTSUNNY   74  45  35 S5        29.88F
RIVERTON       PTSUNNY   75  41  29 S16       29.88F
CASPER         CLOUDY    74  41  30 SW17G24   29.88S
DOUGLAS        CLOUDY    79  41  25 E16G31    29.86F

$$
WYZ021-027>030-104>119-200200-
SOUTHERN WYOMING

CITY           SKY/WX    TMP DP  RH WIND       PRES   REMARKS
EVANSTON       PTSUNNY   62  48  60 E5        30.04S
KEMMERER       MOCLDY    61  45  55 CALM      30.05F
FORT BRIDGER   FAIR      62  51  67 S7        30.06S
ROCK SPRINGS   CLOUDY    61  49  64 SW13      30.01F
DIXON          FAIR      69  50  52 W5        30.05S
RAWLINS        PTSUNNY   65  47  52 SW10      30.03F
SARATOGA       FAIR      63  50  63 MISG      30.05F
LARAMIE        PTCLDY    68  42  38 NE7       30.04F
CHEYENNE       CLEAR     73  45  36 NW9       29.96S
TORRINGTON     CLOUDY    79  47  32 W12       29.79F
PINE BLUFFS    FAIR      77  45  31 N9        29.89F

$$


USA.gov is the U.S. government's official web portal to all federal, state and local government web resources and services.